Regional Weather Roundup
Issued by NWS

Home | Current Version | Previous Version | Text Only | Print | Product List | Glossary Off
Versions: 1 2 3 4 5 6 7 8 9 10 11 12 13 14 15 16 17 18 19 20 21 22 23 24 25 26 27 28 29 30 31 32 33 34 35 36 37 38 39 40 41 42 43 44 45 46 47 48 49 50

000
ASUS45 KSLC 061510
RWRUT

UTAH REGIONAL WEATHER ROUNDUP
NATIONAL WEATHER SERVICE SALT LAKE CITY UT
900 AM MDT MON JUL 06 2015

UTZ001>011-023>025-061600-

NORTHERN UTAH

CITY           SKY/WX    TMP DP  RH WIND       PRES   REMARKS
BRIGHAM CITY   SUNNY     71  59  66 CALM      30.13R
HILL AFB       SUNNY     71  56  58 E10       30.15R
LOGAN          SUNNY     67  56  67 CALM      30.15R
OGDEN          SUNNY     74  56  53 SE6       30.13R
PROVO AIRPORT  MOSUNNY   73  54  49 SE5       30.15R
SALT LAKE CITY MOSUNNY   77  57  50 S3        30.11R
VERNAL         SUNNY     71  55  56 VRB6      30.20S
WENDOVER       SUNNY     77  48  36 NW15      30.14S
HEBER CITY     SUNNY     64  52  63 CALM      30.22S
WEST JORDAN    SUNNY     75  55  50 CALM      30.14R

$$

UTZ012>022-026-027-061600-

SOUTHERN/CENTRAL UTAH

CITY           SKY/WX    TMP DP  RH WIND       PRES   REMARKS
BLANDING       CLOUDY    66  57  73 CALM      30.29R
BRYCE CANYON   CLOUDY    62  48  60 W7        30.36R
CEDAR CITY     CLOUDY    71  48  43 S6        30.24R
DELTA          CLOUDY    73  50  44 SE8       30.15F
HANKSVILLE     PTSUNNY   68  63  83 CALM      30.15S
MILFORD        CLOUDY    70  48  45 S6        30.19R
MOAB/CYNLANDS  SUNNY     74  58  57 SE7       30.13S
PRICE          MOSUNNY   76  53  44 VRB3      30.22S
ST GEORGE      MOSUNNY   81  52  36 S7        30.09R
KANAB          CLOUDY    70  55  60 CALM      30.28R

$$

REGIONAL REPORTS     COLORADO/ARIZONA

CITY           SKY/WX    TMP DP  RH WIND       PRES   REMARKS
CRAIG, CO      CLOUDY    60  55  83 CALM      30.30R
GRAND JUNCTION MOSUNNY   69  57  65 SE9       30.18R
RIFLE          CLOUDY    63  57  81 NE3       30.23R
MONTROSE       MOSUNNY   67  54  63 CALM      30.26R
CORTEZ         CLOUDY    71  53  52 CALM      30.21F
PAGE, AZ       CLOUDY    79  52  38 N9        30.13R
GRAND CANYON   CLOUDY    64  52  64 NW5       30.31S
KINGMAN        SUNNY     80  59  48 SW3       30.11R
FLAGSTAFF      MOSUNNY   63  50  62 VRB3      30.33S

$$

REGIONAL REPORTS    NEVADA/IDAHO/WYOMING

CITY           SKY/WX    TMP DP  RH WIND       PRES   REMARKS
LAS VEGAS, NV  CLOUDY    85  55  35 S12       29.97R
ELY            PTSUNNY   69  40  34 NW3       30.27S
ELKO           SUNNY     67  51  56 VRB3      30.22S
POCATELLO, ID  CLOUDY    68  57  68 W6        30.17R
BURLEY         PTSUNNY   69  57  65 CALM      30.13R
EVANSTON, WY   SUNNY     60  53  77 NE9       30.32R
ROCK SPRINGS   CLOUDY    59  52  77 E9        30.33R
KEMMERER       CLOUDY    59  50  72 E5        30.35S

$$


USA.gov is the U.S. government's official web portal to all federal, state and local government web resources and services.